Wind_Speed
5 5 4 4 3 4 4 4 4 4 4 3 3 3 3 4 4 4 4 4 5 5 6 6 6 6 7 8 8 8 9 9 10 10 10 9 10 10 10 10 10 10 10
5 4 4 3 3 3 4 4 4 4 4 4 4 4 4 5 5 6 6 6 6 6 7 7 7 8 8 8 9 9 9 9 10 10 10 10 10 10 10 11 10 10 10
5 5 4 3 2 2 3 4 4 4 5 5 5 5 5 5 5 6 6 6 6 7 7 8 8 8 9 9 10 9 9 9 10 10 9 9 9 10 10 11 11 12 12
4 4 4 3 2 2 3 3 4 5 5 5 6 6 6 6 6 6 6 6 7 7 8 8 8 9 9 9 10 10 10 10 10 10 10 10 11 11 11 12 12 11 12
3 3 3 2 2 2 2 4 4 5 5 5 6 7 7 7 7 7 7 7 8 8 8 8 9 9 10 10 11 10 11 11 11 12 12 11 12 12 12 12 12 12 12
2 2 1 2 2 3 3 3 4 4 4 5 6 6 7 7 8 9 9 9 9 9 9 9 10 10 11 11 11 11 11 10 11 12 12 12 12 12 12 13 13 13 14
0 1 2 2 3 4 3 4 4 4 5 5 6 6 7 7 8 9 9 9 10 10 10 10 11 11 11 11 10 10 10 11 11 11 11 12 13 14 14 14 14 14 15
1 2 3 4 4 5 5 5 5 5 6 6 7 7 8 8 7 8 9 10 11 11 11 12 11 11 11 11 11 11 11 11 12 12 13 13 13 14 14 14 15 15 15
2 4 5 5 5 6 6 6 6 6 7 7 7 8 8 9 9 9 9 10 11 11 12 12 12 11 11 11 11 12 12 12 12 13 14 14 14 14 14 15 15 16 16
4 5 6 6 6 7 7 8 8 8 8 8 8 9 9 10 10 10 10 10 10 10 11 12 12 12 12 12 12 12 13 13 14 14 14 14 14 14 15 15 15 15 15
5 6 7 7 8 9 9 9 10 9 9 9 9 9 10 10 11 11 11 11 12 12 12 13 13 14 14 13 13 13 13 13 14 13 13 14 14 14 14 14 14 15 15
7 7 8 8 9 10 10 10 10 9 9 9 9 10 10 11 12 12 12 12 13 13 14 14 14 14 14 14 13 13 13 13 14 14 13 13 13 13 13 14 14 15 15
10 9 10 10 10 10 11 11 10 9 10 10 11 11 11 12 13 13 14 14 14 14 14 14 14 15 14 14 14 14 14 15 15 14 14 14 14 14 14 14 14 15 15
13 13 12 12 12 11 11 11 11 11 11 12 12 12 13 13 14 15 15 15 15 15 15 15 15 16 16 16 16 16 16 16 16 16 15 15 15 15 15 15 15 15 16
15 15 14 14 14 13 13 13 13 13 13 13 13 13 14 14 15 15 16 16 16 16 16 17 17 17 17 18 18 18 18 18 18 17 17 17 17 17 17 17 17 16 17
16 16 16 16 15 15 15 16 16 15 15 15 15 15 16 16 17 17 17 17 17 17 17 18 18 18 18 19 20 19 19 19 19 19 19 19 19 19 19 18 18 17 17
18 18 18 17 17 17 17 17 18 18 17 17 16 17 18 18 19 19 18 18 18 19 19 19 20 20 20 20 20 21 20 20 20 20 20 20 20 20 20 20 19 19 19
19 19 20 20 19 19 19 19 19 19 19 19 19 19 20 21 21 21 21 21 21 21 21 22 22 21 21 22 22 22 22 23 22 21 21 21 21 21 21 21 21 21 20
22 22 22 22 22 21 21 22 22 22 22 21 22 22 23 23 23 23 24 24 24 24 24 24 24 23 24 24 24 24 24 23 23 23 23 22 22 22 22 22 22 22 21
25 25 24 24 24 24 24 23 24 25 24 24 24 24 25 25 26 26 26 26 27 27 27 26 26 25 25 25 25 24 24 24 24 23 24 24 24 23 23 23 23 23 22
27 27 26 26 27 27 26 27 27 27 27 27 27 27 27 27 28 28 28 28 28 28 28 27 27 27 26 26 26 26 25 26 26 26 26 26 26 25 25 25 24 24 24
28 27 27 28 28 28 28 28 28 28 28 29 29 30 30 29 29 29 29 28 28 29 29 29 29 29 28 29 29 28 28 28 28 28 28 27 26 26 26 27 27 27 27
30 30 30 30 29 30 30 30 30 31 31 31 32 32 32 31 31 31 31 31 31 31 30 31 31 30 31 31 31 31 31 31 30 30 30 29 28 28 28 28 29 29 29
32 31 31 31 31 31 32 32 33 34 33 33 33 33 33 32 32 33 33 33 33 33 32 32 32 33 33 33 33 33 33 33 33 32 31 31 31 31 31 30 29 30 30
34 33 32 32 33 33 33 33 34 35 36 35 35 35 34 33 33 34 34 34 34 34 34 34 34 33 34 35 36 36 35 35 34 33 33 33 33 33 32 31 31 31 30
34 33 33 34 34 34 34 35 36 36 37 36 36 36 36 35 35 35 36 36 35 35 36 36 36 35 36 36 36 37 37 36 36 35 34 34 34 34 34 33 33 32 32
Wind_Direction
175 184 179 184 186 194 196 197 206 214 217 211 210 221 228 229 233 236 240 245 251 259 261 265 273 277 274 273 275 276 272 271 271 274 277 278 279 273 272 269 270 274 277
178 178 180 183 194 204 213 217 222 228 235 234 241 248 248 245 239 242 246 250 255 260 267 269 272 276 275 274 276 276 274 272 273 273 274 276 276 272 273 272 270 273 276
169 172 179 185 203 229 233 238 238 246 248 243 251 260 263 259 253 251 255 255 261 266 271 275 274 277 277 278 279 276 277 277 277 279 278 279 279 279 278 281 275 274 275
166 175 192 211 244 267 258 256 256 258 259 256 256 257 258 260 261 261 266 264 267 270 275 279 277 279 281 280 282 279 277 279 280 281 280 280 281 279 280 279 281 278 275
168 183 211 235 277 293 286 275 277 264 262 265 262 258 258 257 263 266 271 276 275 275 277 279 280 281 283 282 282 281 282 278 280 283 282 283 282 283 282 280 278 278 277
177 191 224 253 284 309 302 288 284 278 271 274 274 270 266 268 266 265 270 274 273 276 277 281 283 283 285 286 284 285 285 284 284 284 282 280 282 284 285 283 282 279 279
210 241 277 300 295 300 294 291 293 287 279 279 280 279 277 279 275 269 270 272 273 276 278 281 281 281 284 284 283 283 285 286 288 290 289 286 286 286 285 283 282 281 280
317 301 284 284 294 294 298 301 298 294 289 289 287 282 280 281 282 277 276 275 276 278 280 280 280 282 282 283 282 283 284 287 288 289 289 288 286 285 285 285 285 284 283
315 319 314 303 296 297 297 302 302 296 288 288 287 285 286 287 287 285 281 280 279 279 281 281 280 281 280 282 285 286 288 288 287 288 287 286 285 283 283 283 285 285 283
298 304 310 304 299 299 301 301 302 297 290 286 287 289 289 289 290 290 286 286 285 284 284 283 281 282 283 283 283 286 288 289 289 288 288 287 286 283 282 282 283 283 282
296 299 301 299 294 295 297 299 299 296 290 284 287 289 288 287 287 288 287 285 283 282 282 281 280 281 282 280 280 284 286 288 288 288 290 291 289 286 283 282 284 284 284
294 296 296 296 295 295 296 299 298 294 293 289 285 284 283 283 287 288 288 287 286 284 283 281 279 278 277 279 282 283 285 286 287 288 289 289 288 288 287 285 285 286 286
290 291 290 291 292 291 292 292 289 290 291 292 291 289 288 287 287 287 288 287 286 285 285 281 277 276 276 278 281 282 283 285 287 289 287 286 285 286 286 286 286 287 288
284 287 287 285 284 285 287 284 282 286 288 291 290 287 287 288 287 287 286 286 285 285 284 283 279 276 276 277 280 281 282 283 284 284 285 285 285 284 283 284 285 285 287
281 283 283 284 282 281 285 286 285 285 285 288 288 287 288 288 289 289 287 283 283 283 284 282 282 279 277 277 278 280 282 282 281 281 282 283 284 283 282 283 282 281 283
278 278 279 279 280 279 280 282 284 284 283 283 283 286 287 287 286 287 288 285 283 283 283 283 283 282 278 277 277 279 281 281 281 280 280 280 282 282 282 282 281 280 280
274 277 277 279 280 278 277 279 280 282 280 280 282 285 287 286 287 286 285 284 281 282 282 282 282 282 282 281 279 279 281 282 281 279 279 279 280 282 282 282 281 281 280
272 275 276 277 278 278 278 279 279 281 280 279 281 283 284 285 286 285 283 282 281 281 282 281 280 280 280 282 282 280 280 280 282 280 279 279 280 282 281 281 281 281 280
273 276 277 278 277 277 278 279 280 279 279 279 279 280 281 281 282 282 282 281 280 280 281 281 280 279 279 280 279 279 279 281 280 280 278 278 279 281 281 280 281 282 281
274 274 275 277 277 276 276 277 278 276 277 279 280 281 281 279 278 279 279 280 280 280 280 280 279 279 279 280 279 277 277 278 279 280 280 278 279 280 280 280 281 281 280
276 275 274 276 275 275 276 277 276 274 274 276 279 281 280 279 277 276 278 279 279 279 278 278 278 277 277 278 279 278 277 277 276 278 279 279 279 280 281 280 280 281 280
275 274 275 277 277 276 276 276 275 274 273 274 276 277 278 277 277 277 278 278 277 277 277 278 277 277 278 278 277 277 277 277 275 276 277 278 280 280 280 280 279 279 280
274 274 274 275 276 276 275 274 274 274 273 274 275 275 274 275 276 276 276 277 277 276 276 276 277 278 278 278 277 276 275 276 276 276 276 276 277 278 279 280 278 279 279
271 271 272 274 275 275 274 273 274 274 273 274 274 273 273 273 274 275 276 277 277 276 275 276 276 277 276 276 277 276 273 273 274 275 276 276 276 277 277 278 279 279 278
270 269 271 274 275 274 274 273 274 274 273 273 273 272 271 271 273 273 274 276 276 275 275 276 276 277 278 277 275 274 273 273 273 273 274 275 276 277 278 279 279 280 280
269 270 271 272 273 274 273 274 275 274 274 273 273 273 272 272 273 274 274 274 274 274 275 275 275 275 276 276 276 273 272 272 272 273 273 273 273 274 275 277 278 279 280
Height
5904 5905 5905 5906 5906 5906 5906 5907 5907 5907 5907 5908 5908 5908 5908 5908 5908 5909 5909 5909 5909 5909 5909 5909 5908 5908 5908 5908 5907 5907 5907 5906 5906 5906 5906 5906 5905 5905 5905 5905 5904 5904 5904
5905 5905 5906 5906 5906 5906 5906 5906 5906 5907 5907 5907 5907 5907 5907 5907 5907 5908 5908 5908 5908 5908 5908 5907 5907 5907 5906 5906 5906 5905 5905 5904 5904 5904 5904 5904 5903 5903 5903 5902 5902 5902 5902
5905 5905 5905 5906 5906 5905 5905 5905 5906 5906 5906 5906 5906 5906 5906 5906 5906 5906 5906 5906 5906 5906 5906 5906 5906 5905 5904 5904 5903 5903 5903 5903 5902 5902 5902 5902 5901 5901 5901 5900 5900 5900 5899
5904 5905 5905 5905 5905 5905 5904 5905 5905 5905 5905 5905 5905 5905 5905 5905 5905 5905 5905 5905 5905 5905 5905 5904 5904 5903 5903 5902 5902 5901 5901 5901 5900 5900 5900 5900 5899 5899 5898 5898 5897 5897 5897
5905 5905 5905 5905 5905 5904 5904 5904 5904 5904 5904 5904 5904 5904 5904 5904 5904 5904 5904 5904 5903 5903 5903 5902 5902 5902 5901 5900 5900 5899 5899 5898 5898 5898 5898 5897 5897 5896 5896 5895 5895 5894 5894
5905 5905 5905 5904 5904 5904 5903 5903 5903 5903 5903 5903 5902 5902 5902 5903 5903 5902 5902 5902 5902 5901 5901 5901 5900 5900 5899 5898 5898 5898 5897 5896 5896 5895 5895 5895 5894 5893 5893 5893 5892 5892 5891
5904 5904 5904 5904 5904 5904 5903 5903 5902 5902 5902 5902 5901 5901 5901 5901 5901 5900 5900 5900 5900 5900 5899 5899 5898 5898 5897 5896 5896 5896 5895 5894 5893 5893 5892 5892 5891 5891 5890 5889 5889 5888 5888
5904 5904 5904 5903 5903 5903 5902 5902 5901 5901 5901 5900 5900 5900 5900 5900 5899 5899 5898 5898 5898 5897 5897 5897 5896 5895 5895 5894 5894 5893 5893 5892 5891 5890 5890 5889 5888 5888 5887 5886 5885 5885 5884
5903 5903 5903 5902 5902 5902 5901 5901 5900 5900 5899 5899 5899 5898 5898 5898 5897 5897 5896 5896 5895 5895 5895 5894 5894 5893 5893 5892 5891 5891 5890 5890 5889 5888 5887 5886 5885 5884 5884 5883 5882 5881 5880
5902 5902 5902 5901 5901 5900 5900 5899 5899 5898 5898 5897 5897 5896 5896 5896 5895 5894 5894 5893 5893 5892 5892 5892 5891 5891 5890 5889 5889 5888 5887 5887 5886 5885 5884 5883 5882 5881 5880 5879 5879 5878 5877
5901 5901 5900 5900 5899 5898 5898 5897 5897 5896 5896 5895 5895 5894 5893 5893 5892 5892 5892 5891 5890 5890 5889 5889 5888 5887 5887 5886 5885 5885 5884 5883 5882 5881 5880 5879 5878 5877 5876 5876 5875 5874 5873
5900 5899 5899 5898 5897 5896 5896 5895 5894 5894 5893 5892 5892 5891 5891 5891 5890 5890 5889 5888 5887 5887 5886 5885 5885 5884 5883 5882 5882 5881 5880 5880 5879 5878 5877 5876 5875 5874 5873 5872 5871 5870 5869
5897 5897 5896 5895 5895 5894 5893 5893 5892 5892 5891 5890 5889 5889 5888 5888 5887 5887 5886 5885 5884 5883 5882 5881 5881 5880 5879 5879 5878 5877 5877 5876 5875 5874 5873 5872 5871 5871 5869 5868 5867 5866 5865
5894 5893 5893 5892 5891 5891 5890 5889 5889 5889 5888 5887 5887 5886 5885 5884 5883 5883 5882 5882 5881 5880 5878 5878 5877 5876 5875 5875 5874 5873 5873 5872 5871 5870 5869 5868 5868 5867 5866 5864 5863 5862 5861
5890 5890 5889 5888 5888 5887 5887 5886 5886 5885 5885 5884 5883 5883 5882 5881 5880 5879 5878 5878 5877 5876 5875 5874 5873 5872 5871 5870 5870 5869 5868 5867 5866 5866 5865 5864 5863 5862 5861 5860 5859 5858 5857
5886 5886 5885 5885 5884 5883 5883 5882 5882 5881 5881 5880 5879 5879 5878 5877 5876 5875 5874 5873 5872 5872 5871 5870 5868 5867 5866 5866 5865 5864 5863 5862 5861 5861 5860 5859 5858 5858 5857 5855 5854 5853 5852
5882 5881 5881 5880 5880 5879 5878 5878 5877 5877 5876 5876 5875 5874 5873 5872 5871 5870 5870 5869 5868 5867 5866 5865 5864 5863 5862 5861 5860 5859 5858 5857 5856 5855 5855 5854 5853 5852 5851 5850 5849 5848 5847
5876 5876 5875 5875 5875 5874 5874 5873 5872 5872 5872 5871 5870 5869 5868 5867 5866 5865 5865 5864 5863 5862 5861 5860 5859 5857 5856 5855 5854 5854 5852 5852 5851 5850 5849 5848 5847 5846 5845 5844 5843 5842 5841
5870 5870 5870 5869 5869 5868 5868 5867 5867 5866 5866 5865 5864 5863 5862 5861 5861 5860 5859 5858 5857 5856 5855 5854 5853 5852 5851 5849 5848 5848 5846 5845 5844 5843 5843 5842 5841 5840 5839 5838 5837 5836 5835
5864 5864 5863 5863 5862 5862 5861 5861 5860 5860 5859 5859 5858 5857 5856 5855 5854 5853 5852 5851 5850 5849 5848 5847 5846 5845 5844 5843 5842 5841 5840 5839 5838 5837 5836 5835 5834 5833 5832 5831 5830 5829 5828
5857 5857 5856 5856 5855 5855 5854 5854 5853 5852 5852 5851 5851 5850 5849 5848 5847 5846 5845 5844 5843 5842 5840 5839 5839 5838 5837 5836 5836 5834 5833 5832 5831 5830 5829 5828 5827 5826 5825 5824 5823 5822 5821
5849 5849 5848 5848 5847 5847 5847 5846 5845 5844 5844 5843 5843 5842 5841 5840 5839 5838 5837 5836 5835 5834 5833 5832 5831 5830 5830 5829 5828 5827 5826 5825 5824 5823 5821 5820 5819 5818 5817 5816 5815 5815 5814
5841 5841 5841 5840 5839 5839 5838 5838 5837 5836 5835 5835 5834 5833 5832 5831 5830 5829 5828 5827 5826 5825 5825 5824 5823 5822 5821 5821 5820 5819 5818 5817 5816 5815 5813 5812 5811 5810 5809 5808 5807 5806 5805
5832 5832 5832 5831 5830 5830 5829 5829 5828 5827 5826 5825 5824 5823 5822 5821 5820 5819 5818 5817 5816 5816 5815 5815 5814 5813 5813 5811 5810 5809 5808 5807 5807 5806 5805 5804 5803 5801 5800 5799 5798 5797 5796
5823 5823 5823 5822 5821 5821 5820 5819 5818 5817 5816 5815 5814 5813 5812 5811 5811 5810 5808 5807 5807 5806 5805 5804 5804 5803 5802 5801 5800 5799 5799 5798 5797 5796 5796 5795 5794 5792 5791 5790 5789 5788 5787
5814 5813 5813 5812 5811 5811 5810 5809 5807 5806 5805 5804 5803 5802 5801 5800 5800 5799 5798 5797 5797 5796 5795 5794 5793 5793 5792 5791 5789 5789 5788 5787 5787 5787 5786 5785 5784 5783 5782 5781 5780 5779 5778